Weather History for Pecs, Hungary

Change the Weather History Date:

Friday, December 13, 2013

  Actual Average Record
Temperature  
Mean Temperature 33 °F -  
Max Temperature 41 °F 37 °F - ()
Min Temperature 25 °F 27 °F - ()
Degree Days  
Heating Degree Days 32    
Moisture  
Dew Point 25 °F    
Average Humidity 79    
Maximum Humidity 100    
Minimum Humidity 47    
Precipitation  
Precipitation 0.00 in 0.05 in - ()
Sea Level Pressure  
Sea Level Pressure 30.35 in    
Wind  
Wind Speed 2 mph ()    
Max Wind Speed 6 mph    
Max Gust Speed -    
Visibility 3.0 miles    
Events Fog    
T = Trace of Precipitation, MM = Missing Value Source: Averaged Metar Reports

Daily Weather History Graph

Daily Weather History Graph

Search for Another Location

Airport:

Trip Planner

Search our weather history database for the weather conditions in past years. The results will help you decide how hot, cold, wet, or windy it might be!

Date:

Astronomy

Dec. 13, 2013 Rise Set
Actual Time 7:20 AM CET 4:01 PM CET
Civil Twilight 6:46 AM CET 4:36 PM CET
Nautical Twilight 6:08 AM CET 5:14 PM CET
Astronomical Twilight 5:31 AM CET 5:50 PM CET
Moon 1:42 PM CET (12/13) 3:16 AM CET (12/13)
Length of Visible Light 9h 50m
Length of Day
8h 41m
Waxing Gibbous, 86% of the Moon is Illuminated
Dec 13
Waxing Gibbous
Dec 17
Full
Dec 25
Last Quarter
Jan 1
New
Jan 8
First Quarter

Hourly Weather History & Observations

Time (CET) Temp. Windchill Dew Point Humidity Pressure Visibility Wind Dir Wind Speed Gust Speed Precip Events Conditions
12:45 AM 28.4 °F - 21.2 °F 74% 30.42 in - NNW 2.3 mph - N/A   Clear
1:00 AM 29 °F - 21 °F 60% 30.46 in 9 mi NNW 2.2 mph - -   Partly Cloudy
1:45 AM 30.2 °F - 23.0 °F 75% 30.39 in - Calm Calm - N/A   Clear
2:45 AM 30.2 °F - 23.0 °F 75% 30.39 in - Calm Calm - N/A   Clear
3:45 AM 30.2 °F - 23.0 °F 75% 30.36 in - Calm Calm - N/A   Clear
4:45 AM 30.2 °F 26.7 °F 21.2 °F 69% 30.36 in - SW 3.5 mph - N/A   Clear
5:15 AM 26.6 °F 22.6 °F 21.2 °F 80% 30.36 in - SW 3.5 mph - N/A   Clear
5:45 AM 26.6 °F - 21.2 °F 80% 30.36 in - WSW 2.3 mph - N/A   Clear
6:00 AM - - - N/A% - 4.3 mi Variable 3.5 mph - N/A   Mostly Cloudy
6:15 AM 28.4 °F - 23.0 °F 80% 30.36 in - Calm Calm - N/A   Clear
6:45 AM 26.6 °F - 21.2 °F 80% 30.36 in - Calm Calm - N/A   Clear
7:00 AM 27 °F - 22 °F 74% 30.42 in 6 mi Calm Calm - -   Partly Cloudy
7:15 AM 26.6 °F - 23.0 °F 86% 30.36 in - Calm Calm - N/A   Clear
7:45 AM 28.4 °F - 23.0 °F 80% 30.36 in - Calm Calm - N/A   Clear
8:15 AM 28.4 °F - 23.0 °F 80% 30.36 in - Calm Calm - N/A   Clear
8:45 AM 30.2 °F - 24.8 °F 80% 30.36 in - Calm Calm - N/A   Clear
9:00 AM - - - N/A% - 2.2 mi Variable 2.3 mph - N/A   Clear
9:15 AM 32.0 °F - 24.8 °F 75% 30.36 in - Calm Calm - N/A   Clear
9:45 AM 33.8 °F - 24.8 °F 70% 30.36 in - Calm Calm - N/A   Clear
10:15 AM 35.6 °F - 26.6 °F 70% 30.36 in - Calm Calm - N/A   Clear
10:45 AM 37.4 °F - 26.6 °F 65% 30.36 in - NW 2.3 mph - N/A   Clear
11:15 AM 37.4 °F - 28.4 °F 70% 30.36 in 4.3 mi NW 2.3 mph - N/A   Unknown
11:45 AM 39.2 °F - 26.6 °F 61% 30.33 in 3.7 mi NW 2.3 mph - N/A   Unknown
12:00 PM - - - N/A% - 3.1 mi Variable 2.3 mph - N/A   Mostly Cloudy
12:15 PM 39.2 °F - 26.6 °F 61% 30.33 in 3.7 mi NW 2.3 mph - N/A   Unknown
12:45 PM 39.2 °F - 26.6 °F 61% 30.33 in 3.7 mi WNW 2.3 mph - N/A   Unknown
1:00 PM 40 °F - 27 °F 47% 30.36 in 4 mi WNW 2.2 mph - -   Partly Cloudy
1:15 PM 41.0 °F - 28.4 °F 61% 30.33 in 4.3 mi Calm Calm - N/A   Unknown
1:45 PM 41.0 °F - 26.6 °F 57% 30.30 in 5.0 mi NW 2.3 mph - N/A   Unknown
2:15 PM 41.0 °F 39.0 °F 28.4 °F 61% 30.30 in 5.0 mi WSW 3.5 mph - N/A   Unknown
2:45 PM 39.2 °F 37.0 °F 28.4 °F 65% 30.30 in 5.0 mi SW 3.5 mph - N/A   Unknown
3:00 PM - - - N/A% - 2.2 mi Variable 3.5 mph - N/A   Mostly Cloudy
3:15 PM 37.4 °F - 30.2 °F 75% 30.30 in 5.0 mi SW 2.3 mph - N/A   Unknown
3:45 PM 35.6 °F - 28.4 °F 75% 30.30 in 4.3 mi WSW 2.3 mph - N/A   Unknown
4:15 PM 32.0 °F - 26.6 °F 80% 30.33 in 3.7 mi Calm Calm - N/A   Unknown
4:38 PM 30.2 °F 24.3 °F 26.6 °F 86% 30.36 in 3.1 mi ESE 5.8 mph - N/A   Mist
4:45 PM 30.2 °F 24.3 °F 26.6 °F 86% 30.33 in 3.1 mi ESE 5.8 mph - N/A   Mist
5:15 PM 28.4 °F 23.3 °F 26.6 °F 93% 30.33 in 3.1 mi East 4.6 mph - N/A   Mist
5:45 PM 28.4 °F - 26.6 °F 93% 30.33 in 3.1 mi ESE 2.3 mph - N/A   Mist
6:15 PM 26.6 °F 21.2 °F 24.8 °F 93% 30.33 in 3.1 mi SSE 4.6 mph - N/A   Mist
6:45 PM 26.6 °F 22.6 °F 24.8 °F 93% 30.33 in 2.8 mi ESE 3.5 mph - N/A   Mist
7:00 PM 26 °F - 25 °F 94% 30.37 in 3 mi ESE 4.5 mph - -   Mist
7:15 PM 26.6 °F 22.6 °F 24.8 °F 93% 30.33 in 2.5 mi ESE 3.5 mph - N/A   Mist
7:37 PM 26.6 °F 22.6 °F 24.8 °F 93% 30.39 in 1.9 mi ENE 3.5 mph - N/A   Mist
7:42 PM 26.6 °F 21.2 °F 26.6 °F 100% 30.39 in 0.3 mi East 4.6 mph - N/A Fog Light Freezing Fog
7:45 PM 26.6 °F 21.2 °F 24.8 °F 93% 30.33 in 1.9 mi ENE 4.6 mph - N/A   Mist
8:00 PM - - - N/A% - 0.9 mi Variable 3.5 mph - N/A Fog Light Freezing Fog
8:15 PM 28.4 °F 23.3 °F 26.6 °F 93% 30.33 in 0.2 mi ENE 4.6 mph - N/A Fog Light Freezing Fog
8:45 PM 28.4 °F 23.3 °F 28.4 °F 100% 30.33 in 0.2 mi East 4.6 mph - N/A Fog Light Freezing Fog
9:35 PM 28.4 °F 22.2 °F 26.6 °F 93% 30.39 in 0.1 mi East 5.8 mph - N/A Fog Light Freezing Fog
9:45 PM 28.4 °F 22.2 °F 26.6 °F 93% 30.33 in 0.1 mi East 5.8 mph - N/A Fog Light Freezing Fog
10:45 PM 28.4 °F 23.3 °F 26.6 °F 93% 30.33 in 0.1 mi ENE 4.6 mph - N/A Fog Light Freezing Fog
11:45 PM 28.4 °F - 26.6 °F 93% 30.33 in 0.1 mi East 2.3 mph - N/A Fog Light Freezing Fog